Regional Weather Roundup
Issued by NWS

Home | Current Version | Previous Version | Text Only | Print | Product List | Glossary Off
Versions: 1 2 3 4 5 6 7 8 9 10 11 12 13 14 15 16 17 18 19 20 21 22 23 24 25 26 27 28 29 30 31 32 33 34 35 36 37 38 39 40 41 42 43 44 45 46 47 48 49 50

000
ASUS43 KMKX 051200
RWRWI

WISCONSIN REGIONAL WEATHER ROUNDUP
NATIONAL WEATHER SERVICE MILWAUKEE/SULLIVAN WI
700 AM CDT TUE MAY 05 2015

NOTE: "FAIR" INDICATES FEW OR NO CLOUDS BELOW 12,000 FEET WITH NO
SIGNIFICANT WEATHER AND/OR OBSTRUCTIONS TO VISIBILITY.

WIZ001-002-006>008-014>016-023>028-051300-
NORTHWEST WISCONSIN

CITY           SKY/WX    TMP DP  RH WIND       PRES   REMARKS
SUPERIOR ARPT  SUNNY     31  28  91 CALM      30.28R
ASHLAND        SUNNY     38  32  79 SW5       30.29R WCI  34
6HR MIN TEMP:  31; 6HR MAX TEMP:  38;

HAYWARD        SUNNY     42  33  70 CALM      30.28R
6HR MIN TEMP:  34; 6HR MAX TEMP:  42;

SIREN          SUNNY     33  27  79 CALM      30.25R
CUMBERLAND     SUNNY     43  34  70 E6        30.25R
RICE LAKE      SUNNY     49  33  53 E6        30.26R
CHETEK         SUNNY     49  37  63 E6        30.25R
LADYSMITH      SUNNY     47  35  62 E6        30.28R
EAU CLAIRE     NOT AVBL
MENOMONIE      MOSUNNY   47  40  75 E5        30.23S
NEW RICHMOND   SUNNY     48  34  58 E7        30.22R
OSCEOLA        SUNNY     49  36  59 E8        30.24S
$$

WIZ003>005-009-010-017-018-051300-
NORTH CENTRAL WISCONSIN

CITY           SKY/WX    TMP DP  RH WIND       PRES   REMARKS
MANITOWISH WTR SUNNY     33  33  99 CALM      30.30R
ARBOR VITAE    SUNNY     39  36  88 SE5       30.29R
WOODRUFF       SUNNY     39  36  88 SE5       30.29R
RHINELANDER    SUNNY     44  38  79 NE3       30.31R
6HR MIN TEMP:  36; 6HR MAX TEMP:  48;

EAGLE RIVER    SUNNY     34  34  99 CALM      30.30R
LAND O LAKES   SUNNY     33  32  99 CALM      30.32R
PHILLIPS       SUNNY     43  34  70 CALM      30.28R
TOMAHAWK       MOSUNNY   33  32  96 CALM      30.30R
MEDFORD        MOSUNNY   43  35  73 E8        30.27R
MERRILL        MOSUNNY   41  36  80 CALM      30.28R
$$

WIZ029-030-035-036-043>047-051300-
CENTRAL WISCONSIN

CITY           SKY/WX    TMP DP  RH WIND       PRES   REMARKS
WAUSAU         MOSUNNY   47  33  58 E6        30.27R
6HR MIN TEMP:  45; 6HR MAX TEMP:  50;

MOSINEE        NOT AVBL
MARSHFIELD     MOSUNNY   50  32  50 E7        30.26R
6HR MIN TEMP:  46; 6HR MAX TEMP:  51;

STEVENS POINT  PTSUNNY   45  33  64 E6        30.28R
WAUPACA        CLOUDY    49  37  64 NE3       30.29R
WAUTOMA        NOT AVBL
WISC RAPIDS    PTSUNNY   49  33  54 E9        30.28R
6HR MIN TEMP:  49; 6HR MAX TEMP:  53;

CAMP DOUGLAS   NOT AVBL
$$

WIZ011>013-019>022-031-037>040-048>050-051300-
NORTHEAST WISCONSIN

CITY           SKY/WX    TMP DP  RH WIND       PRES   REMARKS
ANTIGO         MOSUNNY   44  32  63 NE3       30.29R
SHAWANO        PTSUNNY   49  39  67 NE7       30.30R
OCONTO         CLOUDY    42  38  83 NE5       30.30R
STURGEON BAY   CLOUDY    46  34  61 E8        30.33R
6HR MIN TEMP:  45; 6HR MAX TEMP:  46;

GREEN BAY      CLOUDY    49  36  61 E6        30.31R
6HR MIN TEMP:  49; 6HR MAX TEMP:  52;

MANITOWOC      NOT AVBL
APPLETON       PTSUNNY   48  34  57 E6        30.29R
CLINTONVILLE   CLOUDY    45  34  65 CALM      30.29R
OSHKOSH        CLOUDY    51  37  58 E5        30.28R
6HR MIN TEMP:  51; 6HR MAX TEMP:  55;

$$

WIZ032>034-041-042-053>061-051300-
SOUTHWEST WISCONSIN

CITY           SKY/WX    TMP DP  RH WIND       PRES   REMARKS
LA CROSSE      CLOUDY    57  41  55 SE3       30.21R
6HR MIN TEMP:  53; 6HR MAX TEMP:  59;

SPARTA         CLOUDY    52  38  59 E5        30.23R
VIROQUA        CLOUDY    48  48 100 E15       30.21R
BOSCOBEL       LGT RAIN  51  48  89 NE5       30.21R
6HR MIN TEMP:  51; 6HR MAX TEMP:  64; 6HR PCP:  0.09;

PRAIRIE DU CHI CLOUDY    51  48  87 E8        30.18R
PLATTEVILLE    CLOUDY    51  50  94 E16       30.17S
$$

WIZ056-057-062-063-064-067-068-051300-
SOUTH CENTRAL WISCONSIN

CITY           SKY/WX    TMP DP  RH WIND       PRES   REMARKS
REEDSBURG      RAIN      47  46  95 E6        30.24R
BARABOO/DELLS  NOT AVBL
LONE ROCK      NOT AVBL
MINERAL POINT  LGT RAIN  52  48  87 E12       30.19R
MADISON        LGT RAIN  50  44  80 E7        30.23R
6HR MIN TEMP:  50; 6HR MAX TEMP:  58; 6HR PCP:  0.15;

MIDDLETON      CLOUDY    50  45  83 E10       30.23R
WATERTOWN      RAIN      47  45  90 NE7       30.24S
MONROE         DRIZZLE   50  48  93 NE12      30.19R
JANESVILLE     RAIN      50  48  93 E15       30.18F
$$

WIZ051-052-058>065-066-070>072-051300-
SOUTHEAST WISCONSIN

CITY           SKY/WX    TMP DP  RH WIND       PRES   REMARKS
MILWAUKEE      LGT RAIN  44  39  82 NE9       30.27R FOG
6HR MIN TEMP:  44; 6HR MAX TEMP:  53; 6HR PCP:  0.11;

WAUKESHA       CLOUDY    46  39  76 E7        30.27R
MILWAUKEE/TIMM DRIZZLE   46  37  71 NE6       30.27R
RACINE         LGT RAIN  45  41  86 NE6       30.27R
6HR MIN TEMP:  45; 6HR MAX TEMP:  52; 6HR PCP:  0.31;

BURLINGTON     DRIZZLE   46  45  93 NE5       30.24R
KENOSHA        LGT RAIN  47  44  90 E14       30.24R
6HR MIN TEMP:  47; 6HR MAX TEMP:  53; 6HR PCP:  0.30;

FOND DU LAC    CLOUDY    52  35  52 E6        30.27R
6HR MIN TEMP:  52; 6HR MAX TEMP:  54;

SHEBOYGAN      CLOUDY    45  36  70 NE8       30.28R
6HR MIN TEMP:  45; 6HR MAX TEMP:  48;

WEST BEND      LGT RAIN  45  41  87 E6        30.26S
JUNEAU         RAIN      47  43  85 E9        30.27R
$$

LSZ147-162-051300-
LAKE SUPERIOR

STATION/POSITION TIME  TEMP    WIND        PRES    WAVE
                       AIR SEA DIR/SP/G            HT/PER
                 (UTC) (F)     (DEG/KT/KT) (MB)    (FT/S)
W MID LAKE BUOY  1050   39 35  100/  2/  4 1026.4R   0
DEVILS ISLAND    1100   50     150/  3/  3 1025.6F
PORT WING        1100   33     170/  4/  5 1025.1
SAXON HARBOR     1140   36        CALM     1025.1R
$$

LMZ867-665-643>646-051300-
LAKE MICHIGAN

STATION/POSITION TIME  TEMP    WIND        PRES    WAVE
                       AIR SEA DIR/SP/G            HT/PER
                 (UTC) (F)     (DEG/KT/KT) (MB)    (FT/S)
CHAMBERS ISLAND  1100   44      20/  3/  3 1026.1
NORTHPORT PIER   1100   43     310/  3/  4 1026.1R
SISTER BAY       1117   42        CALM       N/A
KEWAUNEE LAKESHO 1100   42      50/  4/  7 1024.9R
SHEBOYGAN LAKESH 1100   43      10/  9/  9 1025.9R
PORT WASHINGTON  1100   49      40/  6/  9 1025.4R
ATWATER BUOY     1100   43      20/ 12/ 14 1025.3F
MILWAUKEE LAKESH 1100   44      20/ 12/ 14   N/A
KENOSHA   LAKESH 1100   46      20/  8/ 11 1024.0R
$$

TC  - TEMPERATURE IN CELSIUS
VSB - VISIBILITY IN STATUTE MILES
WCI - WIND CHILL INDEX
HX  - HEAT INDEX




USA.gov is the U.S. government's official web portal to all federal, state and local government web resources and services.